Regional Weather Roundup
Issued by NWS

Home | Current Version | Previous Version | Text Only | Print | Product List | Glossary Off
Versions: 1 2 3 4 5 6 7 8 9 10 11 12 13 14 15 16 17 18 19 20 21 22 23 24 25 26 27 28 29 30 31 32 33 34 35 36 37 38 39 40 41 42 43 44 45 46 47 48 49 50

716
ASUS45 KABQ 300501
RWRNM
NEW MEXICO REGIONAL WEATHER ROUNDUP
NATIONAL WEATHER SERVICE ALBUQUERQUE NM
1100 PM MDT FRI APR 29 2016

NOTE: "FAIR" MEANS FEW OR NO CLOUDS BELOW 12,000 FEET AGL WITH NO
       SIGNIFICANT WEATHER OR OBSTRUCTIONS TO VISION.

      THIS PRODUCT IS RELEASED AS TWO VERSIONS.  ONE VERSION NEAR
      THE TOP OF THE HOUR CONTAINING PRELIMINARY DATA FROM ALBUQUERQUE
      AND OTHER STATIONS.  A FINAL VERSION WITH ADDITIONAL DATA IS
      ISSUED ABOUT 10 MINUTES AFTER THE HOUR.

NMZ501-503-504-510>518-300600-
NORTHWEST PLATEAU/NORTHCENTRAL MOUNTAINS

CITY           SKY/WX    TMP DP  RH WIND       PRES   REMARKS
FARMINGTON     FAIR      43  29  57 SW5       29.84R
SANTA FE       FAIR      39  32  76 SW7       29.88R WCI  34
TAOS           CLOUDY    39  28  65 CALM      29.87S

$$
NMZ402-403-502-505>509-300600-
WESTCENTRAL MOUNTAINS/SOUTHWEST MOUNTAINS

CITY           SKY/WX    TMP DP  RH WIND       PRES   REMARKS
GALLUP         CLOUDY    42  36  79 CALM      29.92S
GRANTS         RAIN      37  35  89 W18G25    29.98R WCI  27
SILVER CITY      N/A     46  25  42 NW10      29.95F

$$
NMZ407-409-411-412-300600-
SOUTHERN DESERTS

CITY           SKY/WX    TMP DP  RH WIND       PRES   REMARKS
LORDSBURG      FAIR      52  27  37 NW7       29.91S
DEMING         FAIR      52  29  41 W6        29.90S
HOLLOMAN AFB   FAIR      60  27  27 W8        29.85S
ALAMOGORDO     CLOUDY    59  27  29 S3        29.88R
T OR C         FAIR      56  26  31 W5        29.89R

$$
NMZ519>523-300600-
CENTRAL VALLEYS/CENTRAL HIGHLANDS

CITY           SKY/WX    TMP DP  RH WIND       PRES   REMARKS
ALBUQUERQUE    CLOUDY    50  35  56 W6        29.90R
DOUBLE EAGLE   CLOUDY    44  36  73 SW15      29.91R
CLINES CORNERS FAIR      36  33  89 W15       29.87S WCI  27
BELEN          DRIZZLE   45  41  85 SW7       29.92F
SOCORRO        NOT AVBL

$$
NMZ524>526-539-540-300600-
SOUTHCENTRAL MOUNTAINS

CITY           SKY/WX    TMP DP  RH WIND       PRES   REMARKS
RUIDOSO        NOT AVBL

$$
NMZ527>531-300600-
NORTHEAST HIGHLANDS/NORTHEAST PLAINS

CITY           SKY/WX    TMP DP  RH WIND       PRES   REMARKS
LAS VEGAS      FAIR      38  29  70 SW6       29.85S WCI  33
RATON          CLOUDY    35  27  72 N12       29.84F WCI  27
CLAYTON        MOCLDY    38  32  79 N20       29.83F WCI  28

$$
NMZ532>537-300600-
EASTCENTRAL PLAINS

CITY           SKY/WX    TMP DP  RH WIND       PRES   REMARKS
TUCUMCARI      CLOUDY    45  41  86 CALM      29.84R
CANNON AFB     NOT AVBL
CLOVIS AIRPORT FAIR      45  39  81 N6        29.84R

$$
NMZ028-029-538-300600-
SOUTHEAST PLAINS

CITY           SKY/WX    TMP DP  RH WIND       PRES   REMARKS
ROSWELL        FAIR      60  26  27 N12       29.81R
ARTESIA        FAIR      63  25  23 SW15      29.81R
CARLSBAD       FAIR      65  24  21 W13       29.79F
HOBBS          FAIR      57  19  23 W10       29.81S


$$




USA.gov is the U.S. government's official web portal to all federal, state and local government web resources and services.